Location: Peterborough
(44.3091°N, 78.3197°W)
Time: 17:06:24
(UTC-04:00)

Explorer 7 - Pass Details

Date: 29 March 2023
Orbit: 477 x 653 km, 50.3° (Epoch: 04 June)

Event Time Altitude Azimuth Distance (km) Brightness Sun altitude
Rises 18:06:34 0° 266° (W) 2,913 12.4 15.2°
Reaches altitude 10° 18:09:01 10° 273° (W) 1,981 11.8 14.8°
Maximum altitude 18:13:22 44° 346° (NNW) 822 8.0 14.0°
Drops below altitude 10° 18:17:31 10° 60° (ENE) 1,875 9.0 13.3°
Sets 18:19:47 0° 67° (ENE) 2,740 9.8 12.9°
